KF7IOR Weather Reports


time (UTC)temp
F
wind
direction
speed
knots
gust
knots
rain 1hr
in
rain 24hr
in
rain mn
in
humidity
%
barometer
mb
20260505194554 62 109 1.7 5.2 0.00 0.00 0.00 71 1016.2
20260505194035 62 272 0.9 3.5 0.00 0.00 0.00 71 1016.3
20260505193538 62 5 0.9 3.5 0.00 0.00 0.00 70 1016.4
20260505193039 63 11 0.9 2.6 0.00 0.00 0.00 72 1016.2
20260505192534 61 0 0.0 2.6 0.00 0.00 0.00 71 1016.3
20260505192038 61 0 0.9 2.6 0.00 0.00 0.00 74 1016.4
20260505191555 61 273 0.0 1.7 0.00 0.00 0.00 73 1016.3
20260505191035 61 306 0.9 2.6 0.00 0.00 0.00 73 1016.2
20260505190541 61 277 0.9 2.6 0.00 0.00 0.00 75 1016.3
20260505190045 60 308 0.9 1.7 0.00 0.00 0.00 75 1016.2
20260505185537 60 265 0.0 1.7 0.00 0.00 0.00 76 1016.4
20260505185034 59 327 0.9 1.7 0.00 0.00 0.00 77 1016.3
20260505184545 59 329 0.9 2.6 0.00 0.00 0.00 78 1016.4
20260505184034 59 308 0.0 2.6 0.00 0.00 0.00 78 1016.3
20260505183533 59 304 1.7 2.6 0.00 0.00 0.00 79 1016.3
20260505183041 59 0 0.9 2.6 0.00 0.00 0.00 80 1016.3
20260505182535 58 342 0.9 2.6 0.00 0.00 0.00 79 1016.3
20260505182038 58 15 0.9 2.6 0.00 0.00 0.00 79 1016.4
20260505181540 59 0 0.9 2.6 0.00 0.00 0.00 80 1016.3
20260505181036 58 352 0.9 1.7 0.00 0.00 0.00 79 1016.2
20260505180534 58 294 0.0 1.7 0.00 0.00 0.00 79 1016.2
20260505180054 58 0 0.0 2.6 0.00 0.00 0.00 78 1016.2
20260505175534 58 0 0.0 2.6 0.00 0.00 0.00 79 1016.2
20260505175034 58 360 0.9 2.6 0.00 0.00 0.00 79 1016.2
20260505174545 58 300 0.9 2.6 0.00 0.00 0.00 80 1016.2
20260505174036 58 259 0.0 1.7 0.00 0.00 0.00 80 1016.2
20260505173535 57 273 0.0 1.7 0.00 0.00 0.00 81 1016.1
20260505173055 57 0 0.0 1.7 0.00 0.00 0.00 81 1016.2
20260505172535 57 352 0.9 1.7 0.00 0.00 0.00 81 1016.2
20260505172035 57 333 0.0 1.7 0.00 0.00 0.00 81 1016.1
20260505171544 57 301 0.9 2.6 0.00 0.00 0.00 81 1016.1
20260505171035 57 344 0.0 2.6 0.00 0.00 0.00 82 1016.0
20260505170535 57 5 0.0 2.6 0.00 0.00 0.00 81 1016.0
20260505170039 57 347 0.9 2.6 0.00 0.00 0.00 83 1016.0
20260505165535 57 332 0.0 1.7 0.00 0.00 0.00 83 1016.0
20260505165035 57 5 0.0 2.6 0.00 0.00 0.00 83 1016.0
20260505164538 57 5 0.9 2.6 0.00 0.00 0.00 84 1015.9
20260505164037 57 9 0.9 2.6 0.00 0.00 0.00 84 1016.0
20260505163536 56 318 0.9 2.6 0.00 0.00 0.00 85 1015.9
20260505163038 56 352 0.9 1.7 0.00 0.00 0.00 86 1016.0
20260505162535 56 286 0.0 1.7 0.00 0.00 0.00 86 1015.9
20260505162035 56 308 0.9 2.6 0.00 0.00 0.00 86 1015.9
20260505161551 55 292 0.9 2.6 0.00 0.00 0.00 86 1015.9
20260505161035 55 248 1.7 2.6 0.00 0.00 0.00 86 1015.9
20260505160538 55 269 0.9 1.7 0.00 0.00 0.00 87 1015.8
20260505153041 55 250 0.9 1.7 0.00 0.00 0.00 84 1015.8
20260505152535 55 255 0.0 1.7 0.00 0.00 0.00 83 1015.8
20260505152035 55 0 0.9 2.6 0.00 0.00 0.00 83 1015.7
20260505151538 55 181 0.9 2.6 0.00 0.00 0.00 82 1015.8
20260505151035 55 273 0.0 2.6 0.00 0.00 0.00 83 1015.8
20260505150536 55 304 0.9 2.6 0.00 0.00 0.00 82 1015.7
20260505140535 54 207 0.9 2.6 0.00 0.00 0.00 83 1015.1
20260505125035 55 200 0.0 1.7 0.00 0.00 0.00 81 1014.7
20260505124551 55 146 0.9 1.7 0.00 0.00 0.00 81 1014.7
20260505124034 55 190 0.9 2.6 0.00 0.00 0.00 81 1014.7
20260505123535 55 175 0.9 2.6 0.00 0.00 0.00 81 1014.7
20260505123057 55 0 0.9 2.6 0.00 0.00 0.00 80 1014.7
20260505122536 55 178 0.0 2.6 0.00 0.00 0.00 80 1014.6
20260505122036 55 0 0.0 1.7 0.00 0.00 0.00 80 1014.7
20260505121618 55 229 0.0 1.7 0.00 0.00 0.00 80 1014.7
20260505121036 55 139 0.9 1.7 0.00 0.00 0.00 80 1014.6
20260505120535 55 177 0.0 2.6 0.00 0.00 0.00 80 1014.6
20260505120047 55 215 0.9 2.6 0.00 0.00 0.00 80 1014.6
20260505115535 55 153 0.0 1.7 0.00 0.00 0.00 80 1014.6
20260505115039 55 155 0.0 1.7 0.00 0.00 0.00 80 1014.6
20260505114544 55 128 0.0 1.7 0.00 0.00 0.00 80 1014.6
20260505114036 55 0 0.0 2.6 0.00 0.00 0.00 80 1014.5
20260505113535 55 108 0.9 2.6 0.00 0.00 0.00 80 1014.6
20260505113046 55 159 0.0 3.5 0.00 0.00 0.00 80 1014.6
20260505112537 55 186 0.9 3.5 0.00 0.00 0.00 80 1014.6
20260505112036 55 146 0.0 1.7 0.00 0.00 0.00 80 1014.5
20260505111550 55 149 0.9 1.7 0.00 0.00 0.00 80 1014.6
20260505111038 55 196 0.0 1.7 0.00 0.00 0.00 79 1014.5
20260505110539 55 0 0.0 1.7 0.00 0.00 0.00 79 1014.5
20260505102036 56 112 0.9 1.7 0.00 0.00 0.00 79 1014.1
20260505101547 56 0 0.0 1.7 0.00 0.00 0.00 79 1014.1
20260505101036 56 111 0.0 1.7 0.00 0.00 0.00 80 1014.1
20260505100536 56 119 0.0 1.7 0.00 0.00 0.00 81 1014.1
20260505100123 56 120 0.0 1.7 0.00 0.00 0.00 81 1014.1
20260505095539 56 0 0.0 1.7 0.00 0.00 0.00 81 1014.1
20260505095039 56 0 0.0 1.7 0.00 0.00 0.00 81 1014.2
20260505094545 56 113 0.0 2.6 0.00 0.00 0.00 80 1014.1
20260505094036 56 0 0.0 2.6 0.00 0.00 0.00 80 1014.1
20260505093535 56 98 0.0 1.7 0.00 0.00 0.00 80 1014.1
20260505093044 56 0 0.0 1.7 0.00 0.00 0.00 80 1013.9
20260505092536 56 0 0.0 1.7 0.00 0.00 0.00 80 1013.9
20260505092035 56 0 0.0 2.6 0.00 0.00 0.00 80 1013.8
20260505091611 56 0 0.9 2.6 0.00 0.00 0.00 80 1013.8
20260505091034 56 5 0.9 1.7 0.00 0.00 0.00 80 1013.8
20260505090534 56 9 0.9 1.7 0.00 0.00 0.00 80 1013.7
20260505090058 57 9 0.0 1.7 0.00 0.00 0.00 80 1013.6
20260505085536 57 96 0.0 1.7 0.00 0.00 0.00 80 1013.6
20260505085036 57 0 0.0 1.7 0.00 0.00 0.00 80 1013.6
20260505084548 56 107 0.0 1.7 0.00 0.00 0.00 81 1013.6
20260505084039 56 0 0.0 1.7 0.00 0.00 0.00 80 1013.8
20260505083535 56 0 0.0 2.6 0.00 0.00 0.00 80 1013.7
20260505083051 56 331 0.0 2.6 0.00 0.00 0.00 80 1013.7
20260505082535 56 44 0.9 2.6 0.00 0.00 0.00 80 1013.6
20260505082035 56 0 0.9 2.6 0.00 0.00 0.00 81 1013.6
20260505081546 56 37 0.0 1.7 0.00 0.00 0.00 80 1013.6
20260505081037 56 352 0.0 2.6 0.00 0.00 0.00 80 1013.5
20260505080536 56 319 0.9 2.6 0.00 0.00 0.00 80 1013.6
20260505080048 57 336 0.0 1.7 0.00 0.00 0.00 80 1013.4
20260505075537 57 0 0.9 2.6 0.00 0.00 0.00 80 1013.4
20260505075036 57 9 0.0 4.3 0.00 0.00 0.00 80 1013.3
20260505074542 57 292 0.9 4.3 0.00 0.00 0.00 79 1013.4
20260505074039 57 344 0.9 3.5 0.00 0.00 0.00 79 1013.3
20260505073536 57 329 0.9 1.7 0.00 0.00 0.00 79 1013.2
20260505073057 57 40 0.9 1.7 0.00 0.00 0.00 79 1013.1
20260505072535 57 0 0.0 2.6 0.00 0.00 0.00 80 1013.1
20260505072035 58 0 0.0 2.6 0.00 0.00 0.00 79 1012.9
20260505071547 58 352 0.9 2.6 0.00 0.00 0.00 79 1012.9
20260505071035 58 0 0.0 2.6 0.00 0.00 0.00 78 1012.9
20260505070535 58 339 0.9 2.6 0.00 0.00 0.00 79 1012.9
20260505070041 58 0 0.0 1.7 0.00 0.00 0.00 79 1012.9
20260505065536 58 0 0.0 1.7 0.00 0.00 0.00 78 1012.8
20260505065034 58 324 0.0 1.7 0.00 0.00 0.00 78 1012.8
20260505064540 58 0 0.0 1.7 0.00 0.00 0.00 78 1012.7
20260505064037 58 313 0.0 1.7 0.00 0.00 0.00 77 1012.6
20260505063535 59 360 0.0 1.7 0.00 0.00 0.00 77 1012.5
20260505063050 59 0 0.0 1.7 0.00 0.00 0.00 77 1012.4
20260505062535 59 0 0.0 1.7 0.00 0.00 0.00 77 1012.3
20260505062036 59 313 0.0 1.7 0.00 0.00 0.00 76 1012.2
20260505061548 59 19 0.0 1.7 0.00 0.00 0.00 76 1012.2
20260505061036 59 0 0.0 1.7 0.00 0.00 0.00 75 1012.0
20260505060539 60 0 0.0 1.7 0.00 0.00 0.00 75 1012.0
20260505060050 60 0 0.0 2.6 0.00 0.00 0.00 74 1012.0
20260505055535 60 341 0.0 2.6 0.00 0.00 0.00 74 1012.0
20260505055035 60 288 0.0 1.7 0.00 0.00 0.00 74 1012.0
20260505054616 61 260 0.0 1.7 0.00 0.00 0.00 73 1012.0
20260505054037 61 304 0.9 1.7 0.00 0.00 0.00 73 1011.9
20260505053535 61 0 0.0 1.7 0.00 0.00 0.00 72 1011.8
20260505053052 61 274 0.0 2.6 0.00 0.00 0.00 72 1011.7
20260505052538 62 347 0.9 2.6 0.00 0.00 0.00 71 1011.7
20260505052037 62 334 0.9 3.5 0.00 0.00 0.00 71 1011.7
20260505051549 63 360 0.9 3.5 0.00 0.00 0.00 70 1011.6
20260505051036 63 38 0.0 2.6 0.00 0.00 0.00 69 1011.6
20260505050537 63 9 0.9 2.6 0.00 0.00 0.00 69 1011.5
20260505041549 67 346 0.9 3.5 0.00 0.00 0.00 64 1011.0
20260505041035 67 302 0.9 4.3 0.00 0.00 0.00 64 1010.9
20260505040535 67 335 0.9 5.2 0.00 0.00 0.00 63 1010.8
20260505040049 68 235 1.7 5.2 0.00 0.00 0.00 63 1010.8
20260505035535 68 346 1.7 3.5 0.00 0.00 0.00 64 1010.7
20260505035037 69 272 0.9 2.6 0.00 0.00 0.00 67 1010.4
20260505034549 69 252 0.9 1.7 0.00 0.00 0.00 66 1010.3
20260505034035 69 269 0.0 1.7 0.00 0.00 0.00 66 1010.3
20260505033535 69 11 0.9 5.2 0.00 0.00 0.00 66 1010.2
20260505033047 69 213 1.7 5.2 0.00 0.00 0.00 66 1010.1
20260505032535 69 180 1.7 4.3 0.00 0.00 0.00 66 1010.0
20260505032036 70 0 0.0 4.3 0.00 0.00 0.00 65 1009.9
20260505031545 70 191 1.7 4.3 0.00 0.00 0.00 65 1009.9
20260505031035 70 154 0.9 5.2 0.00 0.00 0.00 64 1009.8
20260505030536 70 171 1.7 5.2 0.00 0.00 0.00 64 1009.8
20260505030056 71 0 1.7 4.3 0.00 0.00 0.00 63 1009.8
20260505025538 71 163 1.7 5.2 0.00 0.00 0.00 63 1009.7
20260505025036 71 0 1.7 5.2 0.00 0.00 0.00 63 1009.7
20260505024542 72 148 0.0 4.3 0.00 0.00 0.00 63 1009.7
20260505024035 72 196 0.0 5.2 0.00 0.00 0.00 62 1009.5
20260505023535 72 211 1.7 5.2 0.00 0.00 0.00 62 1009.5
20260505023041 72 167 0.9 3.5 0.00 0.00 0.00 61 1009.5
20260505022535 72 240 0.9 4.3 0.00 0.00 0.00 62 1009.6
20260505022035 72 195 0.9 4.3 0.00 0.00 0.00 61 1009.5
20260505021553 72 121 0.9 4.3 0.00 0.00 0.00 60 1009.6
20260505021034 73 150 0.9 6.1 0.00 0.00 0.00 60 1009.6
20260505020535 73 139 2.6 6.1 0.00 0.00 0.00 59 1009.6
20260505020053 73 140 0.9 6.1 0.00 0.00 0.00 58 1009.5
20260505015535 74 184 1.7 6.1 0.00 0.00 0.00 58 1009.5
20260505015036 74 124 3.5 6.1 0.00 0.00 0.00 58 1009.6
20260505014545 74 225 1.7 7.8 0.00 0.00 0.00 57 1009.5
20260505014035 74 98 0.9 7.8 0.00 0.00 0.00 57 1009.5
20260505013538 74 135 3.5 7.8 0.00 0.00 0.00 56 1009.6
20260505013043 75 145 1.7 4.3 0.00 0.00 0.00 56 1009.6
20260505012535 76 168 0.9 7.0 0.00 0.00 0.00 56 1009.5
20260505012035 75 298 1.7 7.0 0.00 0.00 0.00 57 1009.6
20260505011540 75 166 0.9 5.2 0.00 0.00 0.00 56 1009.7
20260505011034 75 198 2.6 5.2 0.00 0.00 0.00 54 1009.8
20260505010537 75 171 1.7 8.7 0.00 0.00 0.00 56 1009.7
20260505010106 75 149 2.6 8.7 0.00 0.00 0.00 55 1009.7
20260505005535 76 122 2.6 7.8 0.00 0.00 0.00 54 1009.7
20260505005040 76 178 2.6 7.0 0.00 0.00 0.00 53 1009.8
20260505004547 76 171 1.7 7.0 0.00 0.00 0.00 54 1009.8
20260505004036 76 218 1.7 5.2 0.00 0.00 0.00 55 1009.8
20260505003535 75 111 1.7 5.2 0.00 0.00 0.00 54 1009.8
20260505003050 76 187 1.7 7.8 0.00 0.00 0.00 54 1009.8
20260505002537 76 247 2.6 7.8 0.00 0.00 0.00 53 1009.9
20260505002035 76 250 1.7 6.1 0.00 0.00 0.00 55 1009.8
20260505001546 77 284 2.6 7.8 0.00 0.00 0.00 52 1009.8
20260505001035 76 169 0.9 8.7 0.00 0.00 0.00 53 1009.8
20260505000535 76 167 1.7 8.7 0.00 0.00 0.00 53 1010.0
20260505000052 77 210 1.7 7.0 0.00 0.00 0.00 52 1010.0
20260504235538 77 160 1.7 7.0 0.00 0.00 0.00 52 1010.0
20260504235035 76 135 1.7 5.2 0.00 0.00 0.00 53 1010.0
20260504234540 76 157 1.7 7.0 0.00 0.00 0.00 52 1010.0
20260504234034 76 271 3.5 7.0 0.00 0.00 0.00 54 1010.0
20260504233538 76 126 0.9 6.1 0.00 0.00 0.00 51 1010.0
20260504233052 75 168 0.9 6.1 0.00 0.00 0.00 52 1010.0
20260504232535 76 228 2.6 6.1 0.00 0.00 0.00 53 1010.2
20260504232035 76 204 1.7 6.1 0.00 0.00 0.00 52 1010.1
20260504231547 75 212 0.9 6.1 0.00 0.00 0.00 52 1010.3
20260504231038 76 0 1.7 6.1 0.00 0.00 0.00 54 1010.3
20260504230537 76 242 0.9 7.0 0.00 0.00 0.00 52 1010.3
20260504230107 75 306 2.6 7.8 0.00 0.00 0.00 51 1010.4
20260504225540 75 104 3.5 7.8 0.00 0.00 0.00 52 1010.6
20260504225036 75 283 0.9 5.2 0.00 0.00 0.00 52 1010.7
20260504224558 75 204 1.7 5.2 0.00 0.00 0.00 51 1010.7
20260504224036 75 126 1.7 7.0 0.00 0.00 0.00 51 1010.8
20260504223536 75 243 0.9 7.8 0.00 0.00 0.00 51 1010.7
20260504223044 75 245 2.6 7.8 0.00 0.00 0.00 51 1010.9
20260504222535 75 294 0.9 5.2 0.00 0.00 0.00 52 1010.8
20260504222034 73 236 0.9 5.2 0.00 0.00 0.00 51 1011.0
20260504221540 74 270 0.9 5.2 0.00 0.00 0.00 51 1011.1
20260504221035 73 146 1.7 5.2 0.00 0.00 0.00 56 1011.2
20260504220540 73 311 1.7 6.1 0.00 0.00 0.00 53 1011.2
20260504220057 74 153 1.7 6.1 0.00 0.00 0.00 53 1011.3
20260504215538 72 292 1.7 6.1 0.00 0.00 0.00 55 1011.3
20260504215035 72 153 2.6 6.1 0.00 0.00 0.00 53 1011.4
20260504214546 73 176 1.7 5.2 0.00 0.00 0.00 53 1011.4
20260504214035 73 113 0.9 6.1 0.00 0.00 0.00 56 1011.4
20260504213538 72 124 1.7 6.1 0.00 0.00 0.00 57 1011.5
20260504213047 71 159 2.6 6.1 0.00 0.00 0.00 55 1011.6
20260504212535 71 329 1.7 7.0 0.00 0.00 0.00 57 1011.6
20260504212035 71 89 1.7 7.0 0.00 0.00 0.00 58 1011.7
20260504211554 69 115 2.6 6.1 0.00 0.00 0.00 58 1011.7
20260504211035 71 131 2.6 6.1 0.00 0.00 0.00 58 1011.9
20260504210535 70 195 1.7 6.1 0.00 0.00 0.00 56 1012.0
20260504210055 70 252 2.6 6.1 0.00 0.00 0.00 58 1012.0
20260504205534 69 242 2.6 8.7 0.00 0.00 0.00 60 1012.1
20260504205034 70 157 1.7 8.7 0.00 0.00 0.00 57 1012.4
20260504204550 69 109 3.5 7.8 0.00 0.00 0.00 58 1012.3
20260504204034 69 254 2.6 7.8 0.00 0.00 0.00 60 1012.4
20260504203534 68 107 1.7 5.2 0.00 0.00 0.00 59 1012.4
20260504203049 68 230 1.7 6.1 0.00 0.00 0.00 60 1012.5
20260504202534 68 186 1.7 7.8 0.00 0.00 0.00 60 1012.6
20260504202034 67 319 3.5 7.8 0.00 0.00 0.00 61 1012.5
20260504201549 67 165 1.7 6.1 0.00 0.00 0.00 64 1012.6
20260504201033 67 302 3.5 7.0 0.00 0.00 0.00 61 1012.6
20260504200535 67 138 2.6 7.0 0.00 0.00 0.00 61 1012.8
20260504200059 67 121 2.6 7.8 0.00 0.00 0.00 63 1012.8
20260504195534 66 141 2.6 7.8 0.00 0.00 0.00 63 1012.8
20260504195034 66 224 1.7 7.0 0.00 0.00 0.00 65 1012.9